DECAYED

STARLINK-2114, 47393 (Decayed)

Orbit data source: Space-Track

STARLINK-2114, 47393 was a payload satellite owned by SpaceX/Seattle (US) in LEO that was launched on Wed, 20 Jan 2021 UTC via an FALCON 9 launch vehicle from the Air Force Eastern Test Range (AFETR). Payload-class satellites include a variety of spacecraft equipped with specific instruments for various scientific and technological missions. These include communications satellites like Starlink; space stations such as the ISS; scientific satellites like the Hubble; Earth observation satellites from companies like Planet Labs, Umbra, and HawkEye 360; GPS; miniature CubeSats for education and research; and military/defense satellites.

Not visible in the next 10 days
Identifier
47393, 2021-005AW
Orbit
Decayed
Country
Flag of USUS
Related business
Manufacturer
SpaceX/Seattle
Mission
Decayed Commercial Communications
Bus & Motor
STARLINK, Unknown motor
Mass
260 kg wet, ~248 kg dry
Launch date (UTC)
2021-01-20 (5 years ago)
Launch vehicle
FALCON 9
Launch site
Air Force Eastern Test Range (AFETR)
Object type
Payload
Rocket body
Debris
Shape & HBR
Box + 1 Pan, 10.1 m
Radar Cross Section
13.562 m², Large (>1 m²)

Expand to show TLE details & history
Last TLE update: 1 week ago

TLE from 1 week ago
0 STARLINK-2114
1 47393U 21005AW  26166.02263834  .13117879  12537-4  32676-3 0  9999
2 47393  53.0120 213.3904 0004173 278.4944  81.5632 16.45882232299549
Epoch: 2026-06-15T00:32Z
TLE epoch observation values (Epoch: 2026-06-15T00:32:35.952Z)
Latitude
0.00001°
Longitude
-58.07438°
Altitude
150.731 km
Speed
7.817 km/s
True Right ascension
14h 13m 33s
True Declination
0° 00' 00"
Sunlit
Object was in full shadow at epoch
Visualization orbit readout
Latitude
Unknown
Longitude
Unknown
Altitude
Unknown
Speed
Unknown
Apparent Right ascension
Unknown
Apparent Declination
Unknown
Sunlit
N/A
Visualization observer readout
Local Sidereal Time
21:30:17
Azimuth
Unknown
Elevation
Unknown
Doppler factor
Unknown
Orbital elements
Apogee altitude
153.22 km
Perigee altitude
147.771 km
Semi-major axis
6,528.632 km
Eccentricity
0.00042
Inclination
53.012°
RAAN
213.3904°
Arg. of periapsis
278.4944°
True anomaly
81.61051°
Mean anomaly
81.5632°
Eccentric anomaly
81.58685°
Mean motion
4.11443 °/min
Orbital period
87.5 mins
BSTAR
0.00032676
Loading maneuver chart data...
Computing Atmospheric mass density...

Documentation

Showing up to 5 results
|